Location: Alfortville
(48.8058°N, 2.4204°E)
Time: 03:42:31
(UTC+00:00)

Cosmos 1980 Rocket - Pass Details

Date: 22 May 2022
Orbit: 827 x 851 km, 71.0° (Epoch: 06 July)

Event Time Altitude Azimuth Distance (km) Brightness Sun altitude
Exits shadow 21:26:54 - 194° (SSW) 2,664 4.4 -14.0°
Reaches altitude 10° 21:27:30 10° 193° (SSW) 2,439 4.2 -14.0°
Maximum altitude 21:33:01 64° 113° (ESE) 925 2.2 -14.5°
Drops below altitude 10° 21:38:38 10° 33° (NNE) 2,472 5.0 -15.0°
Sets 21:41:06 0° 31° (NNE) 3,415 5.8 -15.2°
